Wind_Speed
20 9 16 23 25 18 11 6 11 18 17 6 10 15 16 16 12 14 27 32 33 22 25 33 37 34 27 20 11 7 4 1 3 5 6 9 11 11 12 13 15 11 10 11
7 27 22 20 12 13 13 13 19 20 18 5 14 22 20 8 9 23 29 27 25 17 23 36 37 32 26 18 10 7 2 1 1 5 8 11 12 9 11 9 13 11 1 8
25 12 21 20 16 15 16 18 20 19 14 9 8 11 13 10 13 19 19 26 19 22 37 39 35 29 24 15 9 6 3 0 1 5 9 11 9 9 10 8 12 5 2 6
17 19 19 19 19 16 18 21 19 20 11 8 7 6 6 6 7 5 9 8 18 29 37 41 35 30 23 13 10 5 3 1 1 5 10 12 12 12 7 8 8 2 2 3
11 21 24 22 26 24 21 14 15 14 13 3 20 2 8 4 5 9 6 15 24 33 41 40 36 29 19 12 11 4 2 2 2 5 11 14 12 7 4 5 4 3 1 4
19 14 23 27 17 21 23 7 8 9 7 8 15 5 14 5 7 4 0 16 27 31 36 36 31 24 17 13 11 5 3 4 4 4 10 12 6 5 6 5 4 3 2 4
14 21 14 14 22 17 13 9 5 4 6 8 8 5 13 8 8 8 9 17 28 33 35 34 31 25 19 17 13 6 5 4 6 5 7 6 6 5 8 7 6 4 2 2
14 11 25 22 20 20 24 14 6 7 4 4 7 7 11 8 9 19 26 28 32 33 33 35 30 25 18 17 13 7 7 6 7 3 5 3 6 6 9 8 6 2 4 7
16 17 6 24 18 20 10 17 13 3 2 2 5 5 6 5 6 12 17 27 30 34 35 33 29 24 19 18 12 8 10 9 8 3 1 4 6 5 8 9 5 4 7 7
4 5 17 14 17 22 21 5 8 0 8 7 4 3 6 5 8 10 11 18 27 34 34 32 29 24 19 15 13 12 12 10 7 3 2 5 6 6 7 7 6 6 5 8
11 4 5 16 18 27 7 19 8 7 7 8 5 9 7 11 12 15 15 25 37 36 36 33 30 24 20 16 17 13 13 11 8 4 2 3 5 7 7 7 6 7 7 7
23 5 9 17 4 19 18 9 21 11 7 3 6 9 6 9 16 17 18 29 35 36 37 32 29 26 23 21 19 14 14 11 8 4 4 3 4 6 7 11 8 8 6 8
6 16 4 8 2 5 20 19 13 7 4 8 9 8 3 2 15 18 23 28 35 36 36 33 31 29 25 23 19 13 15 14 11 6 5 6 3 4 7 12 12 11 10 12
9 5 28 17 12 8 7 19 14 14 7 6 14 5 4 8 10 9 19 32 37 38 38 35 33 31 26 24 20 16 15 16 13 7 8 7 5 5 8 10 14 16 14 12
7 8 19 29 17 4 6 18 20 17 14 15 8 11 9 11 14 20 34 32 33 37 38 38 37 33 28 26 22 18 13 17 16 11 10 5 7 9 11 11 10 11 10 12
6 6 6 20 29 26 16 9 24 21 10 8 13 7 9 18 25 20 28 32 33 38 40 40 38 34 31 28 24 22 17 19 19 14 11 6 12 14 11 10 11 9 9 9
4 5 7 20 20 21 19 23 10 15 19 12 8 8 8 6 11 23 27 35 37 40 42 42 41 38 33 30 25 24 21 19 22 17 13 8 14 16 12 11 14 10 8 8
7 2 3 6 6 11 13 12 15 15 18 17 8 10 15 11 28 32 42 42 39 42 44 44 42 39 34 30 27 23 24 21 23 19 16 12 14 18 15 13 13 11 8 5
17 7 4 3 14 5 11 9 13 8 9 13 17 10 12 22 22 9 44 46 47 45 43 44 42 40 36 32 29 27 28 25 26 21 19 15 13 20 19 17 15 13 11 7
16 15 4 4 6 13 6 6 8 7 10 10 11 13 11 11 7 5 39 47 47 45 43 43 43 41 36 35 33 32 31 29 28 23 18 16 12 19 18 20 17 14 11 8
2 5 11 5 4 5 5 7 7 13 10 6 21 18 12 9 14 26 33 42 46 48 45 42 43 43 40 37 37 36 32 33 26 21 17 18 14 15 18 21 19 16 14 10
4 5 2 4 5 2 20 6 5 6 7 26 28 30 30 33 30 32 28 36 45 48 47 44 42 44 41 39 39 38 35 30 27 23 19 21 19 14 17 18 20 18 17 16
2 4 5 5 2 11 9 15 21 22 12 9 31 38 38 32 31 30 26 28 38 45 47 45 41 43 43 42 41 38 33 31 29 26 22 23 24 20 17 16 19 20 18 22
5 7 3 11 2 20 19 38 38 37 30 19 22 42 38 34 36 31 28 26 31 44 46 45 43 45 44 44 43 36 32 30 30 29 25 26 27 25 22 20 17 20 21 23
4 3 7 9 11 24 14 36 35 39 33 26 4 23 35 34 36 34 28 25 27 39 46 47 44 43 42 43 43 40 33 33 32 31 29 30 29 28 25 22 18 18 20 23
5 3 1 3 15 11 19 34 33 39 37 28 23 11 8 15 35 37 32 29 31 40 47 48 43 40 42 42 42 40 35 33 33 33 32 33 33 33 30 27 23 19 14 17
Wind_Direction
194 199 212 213 219 228 243 250 252 257 262 250 254 264 260 269 236 229 237 251 256 249 241 208 197 199 201 201 201 216 238 349 358 328 329 323 324 314 316 324 326 321 284 231
201 220 213 225 221 221 225 247 255 270 271 268 279 273 255 245 231 228 233 249 250 209 191 182 187 194 200 192 198 207 220 127 5 345 342 333 326 326 322 327 339 333 264 190
207 210 209 209 218 214 224 227 245 251 274 268 272 280 271 274 240 263 269 259 252 207 179 181 185 190 189 184 202 193 170 152 267 347 347 336 335 332 327 320 334 315 188 188
232 215 206 212 220 213 233 224 237 248 258 258 159 268 290 247 239 233 279 248 204 188 184 183 181 185 179 185 185 185 154 257 228 331 334 338 338 336 335 339 346 336 211 231
206 188 215 222 216 215 236 222 237 251 246 237 276 216 259 285 280 282 232 191 187 185 184 180 186 179 179 186 182 160 158 186 151 327 327 336 336 349 24 1 340 332 298 223
210 196 209 222 226 215 236 250 250 261 241 242 249 179 278 225 221 246 129 189 184 180 178 183 179 177 176 177 177 169 170 139 154 280 327 343 16 71 27 357 335 319 278 216
210 217 225 198 212 224 208 194 243 266 210 225 226 225 252 252 236 203 169 165 176 178 180 179 177 177 177 178 177 178 162 150 173 254 344 24 70 41 7 14 10 357 131 169
205 217 209 209 203 206 221 199 194 198 200 199 224 212 247 221 260 204 168 165 172 180 181 178 180 180 179 179 180 179 163 171 182 264 349 62 40 41 28 24 18 97 156 139
197 226 230 203 207 187 205 218 203 166 223 85 215 268 355 119 104 124 144 154 169 177 179 178 181 182 180 181 186 184 180 183 189 271 13 65 28 18 21 30 31 82 125 113
223 199 231 216 197 223 218 153 180 202 204 224 276 214 222 166 173 152 149 166 171 178 178 178 182 181 184 185 180 181 188 189 187 266 104 45 59 45 32 34 71 95 124 119
248 71 313 207 203 203 180 218 223 177 180 192 208 247 210 194 177 169 177 175 176 179 180 180 182 184 186 183 183 182 183 186 191 225 179 62 64 54 51 45 98 102 91 118
203 148 242 243 292 206 210 184 210 221 217 207 172 246 252 213 167 169 174 176 178 181 181 181 182 183 185 185 185 188 186 196 205 206 205 140 82 75 74 63 86 110 103 109
319 215 263 324 183 234 202 207 203 182 119 195 184 239 230 65 170 172 157 171 178 181 179 181 182 185 187 189 190 188 193 196 192 187 181 170 133 118 86 78 77 105 114 116
321 249 209 216 221 178 192 206 190 186 189 171 206 170 158 159 170 153 167 174 177 180 180 183 185 189 190 192 194 192 189 192 193 188 189 187 150 138 119 105 90 90 101 102
2 250 210 220 243 245 206 207 199 198 193 192 189 178 191 177 174 178 177 173 171 179 183 187 190 192 193 193 194 193 187 189 197 192 192 184 153 149 134 128 115 103 119 99
346 293 261 217 229 237 250 263 207 208 190 144 162 206 187 186 184 169 177 172 178 183 189 194 196 195 195 195 193 193 188 189 198 195 198 183 160 147 141 129 128 128 110 98
290 331 336 219 215 233 240 239 225 202 193 149 168 196 157 176 165 179 180 180 184 188 191 198 199 199 198 197 194 194 191 189 196 196 197 192 172 163 156 149 150 134 121 105
234 304 270 251 167 220 237 199 220 209 194 181 165 163 169 186 201 189 187 185 189 191 195 203 202 202 200 198 196 192 192 192 197 196 197 197 181 169 163 164 162 156 141 103
204 194 269 234 195 255 227 202 193 173 217 184 180 182 182 179 188 182 194 197 195 196 200 203 205 205 199 197 194 190 192 195 199 198 196 200 194 179 180 177 176 174 166 142
182 203 201 327 155 215 213 177 179 144 215 186 160 189 190 134 171 217 195 200 200 199 200 202 207 204 201 197 193 190 193 196 200 202 199 198 192 188 188 187 187 183 182 161
199 186 219 236 284 290 236 197 103 180 221 171 182 189 173 186 192 200 191 201 205 200 199 202 205 205 202 198 195 194 195 199 204 204 201 198 198 191 186 184 189 197 198 192
283 321 221 189 228 100 347 297 108 283 256 194 201 193 190 204 209 206 196 192 200 200 198 200 203 205 203 200 196 198 200 202 198 201 198 200 202 189 189 193 190 196 203 201
308 19 308 322 355 310 329 46 359 10 328 242 202 207 199 188 183 181 179 189 195 197 197 198 201 203 204 201 200 201 204 198 194 196 197 198 204 201 195 195 200 200 201 199
212 274 264 332 345 325 353 9 7 10 358 329 224 204 205 191 180 178 179 184 190 198 196 196 200 202 203 203 205 209 204 197 195 196 199 202 206 206 205 206 207 207 206 200
188 270 343 268 332 331 352 1 359 355 1 15 296 205 203 200 188 187 186 192 194 197 194 196 198 202 205 205 206 206 204 198 197 198 201 207 210 211 209 213 215 215 216 212
193 193 178 288 319 295 309 328 334 348 354 8 12 80 137 191 195 191 188 185 188 190 194 196 198 204 206 205 207 206 203 203 200 198 203 208 212 213 213 213 215 217 219 221
Height
1459 1471 1467 1465 1460 1465 1470 1473 1473 1457 1449 1461 1458 1454 1444 1438 1438 1437 1437 1437 1437 1438 1441 1446 1451 1455 1457 1462 1464 1464 1464 1464 1466 1466 1467 1466 1464 1462 1460 1457 1454 1451 1449 1450
1458 1447 1450 1453 1460 1465 1468 1472 1467 1452 1448 1459 1456 1450 1436 1434 1436 1431 1429 1432 1433 1435 1436 1442 1447 1451 1455 1459 1461 1462 1462 1463 1464 1465 1466 1464 1462 1460 1457 1456 1453 1450 1447 1449
1437 1433 1444 1451 1455 1462 1461 1466 1460 1459 1450 1452 1456 1456 1443 1429 1428 1429 1428 1428 1428 1427 1431 1439 1444 1449 1454 1457 1459 1460 1461 1461 1463 1465 1465 1463 1461 1459 1456 1454 1452 1449 1449 1449
1435 1435 1437 1443 1447 1450 1457 1446 1452 1453 1460 1473 1448 1474 1450 1432 1427 1424 1422 1419 1421 1424 1428 1435 1443 1448 1452 1456 1457 1458 1459 1460 1462 1464 1464 1462 1459 1456 1454 1453 1451 1449 1449 1449
1422 1426 1435 1435 1435 1438 1438 1444 1447 1449 1453 1460 1448 1468 1451 1431 1427 1421 1419 1417 1421 1422 1424 1433 1440 1446 1452 1454 1456 1457 1459 1460 1462 1464 1463 1461 1458 1455 1454 1453 1451 1450 1449 1450
1415 1415 1419 1422 1428 1430 1431 1442 1445 1447 1453 1471 1449 1459 1439 1436 1423 1417 1414 1416 1418 1425 1429 1436 1443 1447 1451 1453 1455 1457 1459 1460 1462 1463 1462 1460 1457 1455 1454 1453 1451 1449 1448 1449
1413 1412 1412 1415 1426 1426 1430 1448 1473 1478 1469 1468 1441 1452 1431 1418 1412 1412 1413 1416 1420 1425 1430 1436 1441 1445 1449 1451 1454 1456 1458 1460 1462 1462 1462 1460 1458 1456 1455 1453 1451 1450 1448 1448
1412 1419 1401 1400 1406 1420 1424 1434 1455 1474 1473 1459 1438 1448 1426 1405 1402 1403 1408 1412 1419 1425 1430 1433 1439 1444 1447 1450 1453 1455 1457 1460 1461 1462 1462 1460 1459 1457 1456 1454 1451 1450 1449 1449
1402 1401 1383 1387 1398 1407 1416 1427 1422 1441 1438 1452 1441 1423 1409 1405 1405 1405 1412 1415 1419 1423 1427 1432 1439 1443 1446 1450 1452 1454 1457 1460 1462 1462 1462 1461 1460 1458 1457 1454 1452 1451 1451 1450
1385 1403 1381 1382 1393 1394 1396 1403 1433 1445 1457 1463 1445 1428 1430 1415 1412 1410 1413 1415 1419 1423 1427 1432 1438 1442 1445 1449 1452 1454 1456 1459 1462 1462 1462 1462 1461 1460 1458 1456 1455 1453 1452 1452
1384 1392 1390 1385 1382 1384 1402 1406 1412 1418 1432 1449 1455 1433 1409 1406 1406 1409 1409 1410 1415 1420 1425 1430 1436 1441 1444 1448 1451 1453 1456 1459 1461 1461 1462 1463 1462 1461 1459 1457 1457 1456 1455 1455
1370 1393 1399 1380 1369 1371 1382 1394 1397 1413 1426 1421 1430 1424 1392 1393 1396 1400 1405 1409 1413 1417 1423 1429 1434 1439 1443 1447 1450 1452 1455 1458 1460 1461 1463 1464 1463 1462 1461 1460 1459 1459 1459 1459
1386 1379 1403 1391 1378 1372 1375 1374 1380 1396 1407 1417 1422 1417 1387 1393 1393 1396 1401 1407 1412 1417 1423 1428 1433 1436 1440 1445 1448 1452 1454 1457 1460 1462 1463 1464 1464 1464 1464 1463 1461 1461 1461 1462
1391 1378 1369 1373 1359 1358 1371 1369 1375 1384 1408 1409 1393 1400 1392 1395 1398 1399 1401 1404 1409 1415 1419 1425 1430 1433 1437 1443 1447 1450 1453 1456 1458 1461 1463 1464 1465 1465 1466 1466 1466 1466 1465 1466
1396 1380 1358 1354 1354 1354 1356 1359 1365 1371 1376 1386 1390 1391 1388 1388 1392 1392 1395 1403 1408 1413 1417 1421 1426 1430 1435 1440 1444 1448 1451 1454 1457 1460 1463 1464 1465 1467 1468 1469 1469 1469 1469 1470
1394 1388 1359 1359 1351 1352 1360 1357 1352 1357 1367 1373 1377 1386 1372 1376 1381 1389 1392 1397 1403 1407 1412 1417 1422 1426 1431 1436 1440 1445 1449 1452 1456 1459 1462 1464 1466 1468 1469 1470 1471 1471 1472 1473
1401 1391 1381 1356 1346 1353 1368 1351 1352 1349 1350 1364 1381 1370 1368 1375 1379 1381 1388 1392 1396 1401 1407 1412 1416 1421 1426 1431 1436 1442 1446 1450 1454 1458 1461 1464 1466 1469 1470 1472 1473 1473 1474 1475
1394 1394 1390 1363 1356 1376 1335 1332 1336 1343 1343 1344 1354 1357 1360 1366 1368 1374 1378 1384 1390 1396 1401 1406 1412 1417 1422 1428 1433 1439 1444 1447 1451 1455 1459 1463 1465 1469 1471 1473 1475 1476 1477 1478
1380 1390 1388 1367 1352 1343 1332 1326 1332 1341 1349 1339 1343 1349 1353 1358 1363 1371 1373 1377 1382 1389 1393 1398 1404 1410 1417 1422 1429 1435 1440 1445 1449 1452 1457 1461 1464 1467 1471 1473 1475 1477 1479 1481
1365 1377 1378 1367 1363 1354 1330 1316 1316 1325 1348 1333 1336 1343 1347 1353 1368 1365 1366 1373 1378 1384 1389 1396 1401 1408 1414 1420 1425 1431 1436 1441 1445 1449 1454 1458 1461 1465 1469 1473 1475 1477 1480 1482
1371 1375 1375 1372 1366 1341 1318 1309 1314 1344 1342 1325 1328 1334 1339 1348 1349 1355 1360 1367 1372 1378 1385 1392 1397 1402 1408 1416 1421 1426 1432 1436 1441 1447 1452 1456 1460 1463 1467 1471 1475 1477 1480 1483
1381 1370 1364 1359 1354 1342 1331 1318 1329 1335 1316 1317 1323 1327 1332 1338 1344 1349 1355 1361 1367 1373 1382 1387 1393 1398 1405 1411 1416 1422 1427 1432 1439 1444 1449 1453 1458 1462 1465 1468 1472 1476 1479 1482
1381 1387 1379 1373 1362 1357 1349 1344 1343 1328 1320 1317 1318 1324 1328 1335 1340 1345 1350 1356 1361 1368 1375 1382 1388 1394 1400 1406 1412 1416 1422 1430 1436 1441 1446 1450 1455 1458 1462 1466 1469 1473 1476 1479
1382 1384 1381 1372 1358 1352 1343 1335 1332 1326 1324 1319 1316 1317 1324 1330 1336 1341 1347 1352 1357 1364 1370 1379 1385 1390 1395 1402 1408 1413 1419 1427 1433 1437 1442 1447 1451 1455 1459 1463 1466 1469 1472 1475
1383 1380 1375 1368 1358 1339 1335 1340 1340 1334 1331 1322 1318 1315 1319 1326 1331 1336 1342 1348 1352 1358 1366 1374 1380 1385 1391 1396 1403 1409 1416 1422 1428 1434 1438 1443 1448 1452 1456 1459 1462 1465 1468 1471
1377 1376 1375 1366 1367 1365 1354 1348 1344 1340 1333 1328 1327 1320 1321 1325 1329 1333 1338 1343 1349 1355 1362 1369 1376 1382 1387 1393 1398 1404 1412 1417 1423 1428 1433 1438 1442 1447 1452 1455 1459 1463 1466 1469